Starlink 5525

operational
NORAD ID: 57218 Int'l Des: 2023-094 Owner: SPXS Country: US Constellation: starlink
LEOCIRCULAR

Über Starlink 5525

Beschreibung wird geladen...

Live-Position

3D-Globus wird geladen...

Nächste Überflüge

Höhenverlauf

Altitude vs Time

uPlot chart will show altitude changes over time

Zweizeiliger Elementsatz

1 57218U 23094A 25349.65056635 -.00000635 00000-0 -31966-4 0 9995
2 57218 43.0021 127.3769 0001205 267.8849 92.1856 15.02541161134478
Epoch: 15. Dez. 2025 • Age: 26 hours

Aktueller Status

Höhe 562.1 km
Geschwindigkeit 7.59 km/s
Subsatellitenpunkt 38.83°N, 107.94°W
Startdatum 7. Juli 2023
Alter 2.4 years
Typ internet

Technische Details

Klassifizierung Payload
Masse 305.00 kg
Trockenmasse 290.00 kg
Gesamtmasse 305.00 kg
Länge 0.20 m
Durchmesser 2.80 m
Spannweite 9.00 m
Form Box + pan
Hersteller SPXS
Bus-Typ Starlink
Phasenstatus In Orbit
Besitzer/Staat SPXS/US

Große Konstellationen

Loading constellations...